Mc Ghee Tyson Airport
KTYS : rendu visible

Aérodrome :











RETROUVEZ-NOUS SUR...

 
LOGIN :

S'inscrire | Disclaimer

   EN    FR    IT 

 









Légende :    VFR   VFR Marginal   IFR   IFR Intensif   IFR Très Intensif
Visi : 
Plafond : 
>= 8 km
>= 3000ft
5 à 8 km
1000 à 3000 ft
1500m à 5 km
500 à 1000 ft
800 à 1500m
200 à 500 ft
< 800m
< 200 ft
Symboles :   Orages  Brouillard  Fortes neiges  Fortes précipitations  Vent > 20 kt






- Altitude de l'aérodrome : 981 ft
- Code IATA : TYS


KTYS - Mc Ghee Tyson

DERNIER METAR :
  • 182253Z 36013G22KT 10SM BKN035 OVC046 19/13 A3009 RMK AO2 SLP180 T01940133

METARs EXPIRÉS :
  • 182153Z 34012KT 10SM SCT032 OVC055 21/14 A3006 RMK AO2 SLP172 T02110144
  • 182053Z 01011KT 10SM FEW035 BKN050 OVC250 23/15 A3004 RMK AO2 SLP165 T02280150 53001

TAF KTYS
Valide du 18 à 20h jusqu'au 19 à 18h UTC


181931Z 1820/1918 02009KT P6SM SCT030 BKN040 BKN250
FM191100 04007KT P6SM SCT040 BKN250
FM191700 03004KT P6SM BKN050
FIR KZTL / Amérique du Nord



MET'MAP, la Météo Aéronautique d'un coup d'oeil ! - Copyright ORBIFLY Décembre 2007 - Disclaimer

ORBIFLY MET'MAP TEAM :

Programmation & Développement : Alexandra Zaïnal
Sur une idée originale de : Baudouin d'Aumeries
Assistance à la programmation : Marc-Olivier Méhu
Soutien technique & logistique : Manuel Goepfert

Contact : metmap@orbifly.com




SOURCES & CREDITS :

   NOAA       Earth
Advisory